AA0PB Weather Reports


Display with metric or nautical units.
time (UTC)temp
F
wind
direction
speed
MPH
gust
MPH
rain 1hr
in
rain 24hr
in
rain mn
in
humidity
%
barometer
mb
20260507025154 61 13 3.0 11.0 0.00 0.00 0.00 72 1021.0
20260507024652 62 51 3.0 7.0 0.00 0.00 0.00 73 1020.9
20260507024149 62 96 1.0 6.0 0.00 0.00 0.00 73 1020.8
20260507023644 62 97 2.0 8.0 0.00 0.00 0.00 73 1021.0
20260507023142 62 83 3.0 5.0 0.00 0.00 0.00 73 1020.6
20260507022639 62 117 1.0 3.0 0.00 0.00 0.00 75 1020.5
20260507022135 62 103 1.0 3.0 0.00 0.00 0.00 76 1020.7
20260507021631 62 128 1.0 6.0 0.00 0.00 0.00 76 1020.6
20260507021126 63 85 3.0 5.0 0.00 0.00 0.00 75 1020.6
20260507020625 64 78 2.0 3.0 0.00 0.00 0.00 74 1020.4
20260507020121 64 127 3.0 5.0 0.00 0.00 0.00 72 1020.8
20260507015620 65 130 2.0 6.0 0.00 0.00 0.00 70 1020.8
20260507015116 66 128 1.0 5.0 0.00 0.00 0.00 68 1020.6
20260507014613 66 85 4.0 6.0 0.00 0.00 0.00 68 1020.7
20260507014109 66 88 3.0 6.0 0.00 0.00 0.00 71 1020.6
20260507013606 66 46 1.0 8.0 0.00 0.00 0.00 68 1020.7
20260507013103 67 64 2.0 3.0 0.00 0.00 0.00 66 1020.7
20260507012600 67 41 2.0 6.0 0.00 0.00 0.00 66 1020.5
20260507012055 66 146 3.0 5.0 0.00 0.00 0.00 68 1020.7
20260507011554 66 59 3.0 6.0 0.00 0.00 0.00 68 1020.8
20260507011050 67 31 3.0 6.0 0.00 0.00 0.00 68 1020.7
20260507010544 67 63 4.0 7.0 0.00 0.00 0.00 68 1020.8
20260507010041 67 111 1.0 2.0 0.00 0.00 0.00 70 1020.6
20260507005539 67 108 1.0 5.0 0.00 0.00 0.00 70 1020.6
20260507005034 67 30 3.0 5.0 0.00 0.00 0.00 69 1020.7
20260507004532 67 83 3.0 5.0 0.00 0.00 0.00 72 1020.4
20260507004029 68 157 1.0 3.0 0.00 0.00 0.00 70 1020.5
20260507003525 67 8 4.0 6.0 0.00 0.00 0.00 70 1020.5
20260507003020 67 103 3.0 5.0 0.00 0.00 0.00 72 1020.6
20260507002517 67 129 3.0 3.0 0.00 0.00 0.00 71 1020.4
20260507002013 68 72 3.0 6.0 0.00 0.00 0.00 71 1020.4
20260507001509 68 125 2.0 3.0 0.00 0.00 0.00 70 1020.6
20260507001007 68 39 4.0 7.0 0.00 0.00 0.00 71 1020.3
20260507000503 67 48 2.0 3.0 0.00 0.00 0.00 71 1020.3
20260506235958 68 115 3.0 7.0 0.00 0.00 0.00 72 1020.5
20260506235456 67 117 1.0 3.0 0.00 0.00 0.00 72 1020.5
20260506234952 67 121 3.0 7.0 0.00 0.00 0.00 72 1020.5
20260506234449 67 149 1.0 3.0 0.00 0.00 0.00 73 1020.6
20260506233947 67 63 3.0 5.0 0.00 0.00 0.00 72 1020.6
20260506233443 67 101 3.0 7.0 0.00 0.00 0.00 73 1020.4
20260506232940 68 93 5.0 8.0 0.00 0.00 0.00 71 1020.4
20260506232436 69 106 3.0 8.0 0.00 0.00 0.00 67 1020.4
20260506231932 70 50 3.0 6.0 0.00 0.00 0.00 67 1020.5
20260506231429 70 137 1.0 5.0 0.00 0.00 0.00 67 1020.2
20260506230926 70 59 3.0 5.0 0.00 0.00 0.00 66 1020.4
20260506230423 69 87 2.0 5.0 0.00 0.00 0.00 69 1020.3
20260506225919 71 152 0.0 3.0 0.00 0.00 0.00 66 1020.3
20260506225417 69 31 2.0 6.0 0.00 0.00 0.00 69 1020.4
20260506224914 69 55 4.0 5.0 0.00 0.00 0.00 69 1020.4
20260506224411 68 78 4.0 6.0 0.00 0.00 0.00 69 1020.7
20260506223907 68 113 1.0 3.0 0.00 0.00 0.00 68 1020.6
20260506223403 69 83 2.0 3.0 0.00 0.00 0.00 68 1020.8
20260506222900 69 122 2.0 2.0 0.00 0.00 0.00 66 1020.7
20260506222356 69 149 1.0 3.0 0.00 0.00 0.00 66 1020.6
20260506221854 69 96 2.0 5.0 0.00 0.00 0.00 66 1020.8
20260506221351 69 192 3.0 5.0 0.00 0.00 0.00 65 1020.7
20260506220848 69 129 2.0 3.0 0.00 0.00 0.00 67 1020.9
20260506220343 70 134 0.0 1.0 0.00 0.00 0.00 65 1020.8
20260506215840 70 168 1.0 2.0 0.00 0.00 0.00 65 1020.7
20260506215336 70 5 2.0 2.0 0.00 0.00 0.00 64 1020.6
20260506214827 70 157 1.0 2.0 0.00 0.00 0.00 62 1020.6
20260506214323 71 196 3.0 6.0 0.00 0.00 0.00 61 1020.7
20260506213822 72 149 0.0 1.0 0.00 0.00 0.00 60 1020.7
20260506213319 71 182 2.0 5.0 0.00 0.00 0.00 62 1020.7
20260506212816 70 201 2.0 5.0 0.00 0.00 0.00 63 1020.9
20260506212312 70 235 4.0 5.0 0.00 0.00 0.00 63 1020.7
20260506211807 71 152 4.0 5.0 0.00 0.00 0.00 61 1020.7
20260506211303 72 150 2.0 3.0 0.00 0.00 0.00 62 1020.7
20260506210800 69 329 4.0 6.0 0.00 0.00 0.00 64 1020.6
20260506210257 71 187 5.0 6.0 0.00 0.00 0.00 64 1020.8
20260506205754 70 159 0.0 2.0 0.00 0.00 0.00 66 1020.7
20260506205249 69 173 3.0 5.0 0.00 0.00 0.00 66 1020.9
20260506204746 69 162 4.0 10.0 0.00 0.00 0.00 69 1020.9
20260506204244 68 150 1.0 3.0 0.00 0.00 0.00 68 1020.9
20260506203742 67 141 1.0 3.0 0.00 0.00 0.00 70 1020.9
20260506203239 68 181 3.0 3.0 0.00 0.00 0.00 69 1021.0
20260506202736 68 158 0.0 1.0 0.00 0.00 0.00 68 1021.0
20260506202232 68 112 1.0 3.0 0.00 0.00 0.00 70 1021.1
20260506201729 67 124 1.0 2.0 0.00 0.00 0.00 70 1020.8
20260506201226 68 130 0.0 3.0 0.00 0.00 0.00 68 1020.8
20260506200723 68 193 2.0 3.0 0.00 0.00 0.00 72 1020.8
20260506200220 67 174 2.0 5.0 0.00 0.00 0.00 71 1021.1
20260506195716 66 100 3.0 3.0 0.00 0.00 0.00 71 1021.0
20260506195213 67 149 0.0 9.0 0.00 0.00 0.00 71 1021.1
20260506194710 67 163 2.0 5.0 0.00 0.00 0.00 69 1021.2
20260506194207 68 167 1.0 3.0 0.00 0.00 0.00 68 1021.2
20260506193705 68 120 5.0 6.0 0.00 0.00 0.00 70 1021.3
20260506193202 69 170 2.0 5.0 0.00 0.00 0.00 66 1021.1
20260506192658 68 199 1.0 2.0 0.00 0.00 0.00 69 1021.2
20260506192154 67 186 3.0 7.0 0.00 0.00 0.00 68 1021.2
20260506191652 67 181 1.0 6.0 0.00 0.00 0.00 71 1021.1
20260506191148 65 130 3.0 3.0 0.00 0.00 0.00 72 1021.5
20260506190645 67 122 1.0 2.0 0.00 0.00 0.00 71 1021.4
20260506190141 66 200 4.0 5.0 0.00 0.00 0.00 71 1021.5
20260506185639 64 183 2.0 3.0 0.00 0.00 0.00 74 1021.3
20260506185135 64 184 2.0 6.0 0.00 0.00 0.00 75 1021.3
20260506184632 63 172 3.0 8.0 0.00 0.00 0.00 76 1021.3
20260506184130 63 138 1.0 5.0 0.00 0.00 0.00 76 1021.4
20260506183626 64 103 3.0 5.0 0.00 0.00 0.00 75 1021.2
20260506183122 63 139 0.0 2.0 0.00 0.00 0.00 76 1021.3
20260506182620 62 125 1.0 3.0 0.00 0.00 0.00 77 1021.5
20260506182116 63 143 2.0 6.0 0.00 0.00 0.00 77 1021.3
20260506181614 63 167 2.0 3.0 0.00 0.00 0.00 77 1021.4
20260506181111 63 97 3.0 7.0 0.00 0.00 0.00 78 1021.0
20260506180608 62 160 3.0 3.0 0.00 0.00 0.00 77 1021.0
20260506180105 61 127 2.0 5.0 0.00 0.00 0.00 80 1021.2
20260506175601 62 112 2.0 5.0 0.00 0.00 0.00 78 1021.3
20260506175057 62 151 0.0 1.0 0.00 0.00 0.00 79 1021.2
20260506174556 61 151 0.0 2.0 0.00 0.00 0.00 80 1021.5
20260506174052 60 180 3.0 3.0 0.00 0.00 0.00 80 1021.2
20260506173550 61 239 2.0 3.0 0.00 0.00 0.00 78 1021.5
20260506173046 61 160 1.0 3.0 0.00 0.00 0.00 79 1021.3
20260506172544 60 127 0.0 1.0 0.00 0.00 0.00 81 1021.3
20260506172040 60 101 2.0 2.0 0.00 0.00 0.00 81 1021.1
20260506171537 61 113 1.0 1.0 0.00 0.00 0.00 78 1021.0
20260506171034 61 155 1.0 2.0 0.00 0.00 0.00 79 1021.3
20260506170532 60 205 1.0 2.0 0.00 0.00 0.00 79 1021.2
20260506170024 60 181 4.0 6.0 0.00 0.00 0.00 78 1021.0
20260506165522 60 97 1.0 5.0 0.00 0.00 0.00 80 1021.1
20260506165018 60 151 2.0 6.0 0.00 0.00 0.00 79 1021.1
20260506164515 60 134 0.0 0.0 0.00 0.00 0.00 78 1021.2
20260506164012 59 160 0.0 3.0 0.00 0.00 0.00 80 1021.1
20260506163508 60 169 2.0 2.0 0.00 0.00 0.00 79 1021.2
20260506163004 59 176 1.0 2.0 0.00 0.00 0.00 80 1021.4
20260506162500 60 159 0.0 2.0 0.00 0.00 0.00 79 1021.5
20260506161951 60 144 2.0 2.0 0.00 0.00 0.00 78 1021.4
20260506161449 59 186 1.0 2.0 0.00 0.00 0.00 81 1021.3
20260506160947 59 69 1.0 2.0 0.00 0.00 0.00 81 1021.1
20260506160444 58 152 1.0 3.0 0.00 0.00 0.00 81 1021.1
20260506155941 58 145 1.0 1.0 0.00 0.00 0.00 81 1021.1
20260506155438 58 10 3.0 6.0 0.00 0.00 0.00 81 1021.3
20260506153605 58 148 0.0 2.0 0.00 0.00 0.00 81 1020.6
20260506153103 57 148 0.0 1.0 0.00 0.00 0.00 83 1021.0
20260506152559 57 139 1.0 2.0 0.00 0.00 0.00 83 1021.0
20260506152057 57 98 1.0 3.0 0.00 0.00 0.00 84 1020.5
20260506151555 57 64 3.0 5.0 0.00 0.00 0.00 83 1020.7
20260506151052 57 144 0.0 2.0 0.00 0.00 0.00 85 1020.6
20260506150549 57 139 1.0 2.0 0.00 0.00 0.00 85 1020.6
20260506150045 56 46 3.0 3.0 0.00 0.00 0.00 85 1021.0
20260506145542 56 55 0.0 1.0 0.00 0.00 0.00 85 1021.1
20260506145040 56 164 1.0 5.0 0.00 0.00 0.00 86 1021.3
20260506144536 56 80 2.0 2.0 0.00 0.00 0.00 86 1021.1
20260506144034 56 344 2.0 3.0 0.00 0.00 0.00 86 1021.0
20260506143531 56 91 2.0 3.0 0.00 0.00 0.00 87 1021.0
20260506143029 56 121 1.0 6.0 0.00 0.00 0.00 87 1021.1
20260506142527 56 140 1.0 3.0 0.00 0.00 0.00 87 1021.1
20260506142025 56 45 3.0 6.0 0.00 0.00 0.00 87 1020.9
20260506141523 56 328 4.0 6.0 0.00 0.00 0.00 87 1020.9
20260506141021 56 84 1.0 3.0 0.00 0.00 0.00 87 1020.7
20260506140518 56 343 2.0 7.0 0.00 0.00 0.00 87 1020.5
20260506140015 56 334 4.0 7.0 0.00 0.00 0.00 87 1020.4
20260506135512 56 65 1.0 5.0 0.00 0.00 0.00 87 1020.2
20260506135008 56 48 2.0 3.0 0.00 0.00 0.00 87 1020.1
20260506134504 56 53 2.0 3.0 0.00 0.00 0.00 87 1020.3
20260506134000 56 21 3.0 5.0 0.00 0.00 0.00 87 1020.2
20260506133458 56 76 2.0 3.0 0.00 0.00 0.00 88 1020.2
20260506132954 56 145 1.0 2.0 0.00 0.00 0.00 88 1020.4
20260506132451 55 119 1.0 2.0 0.00 0.00 0.00 89 1020.3
20260506131949 55 147 0.0 1.0 0.00 0.00 0.00 89 1020.3
20260506131445 55 93 2.0 3.0 0.00 0.00 0.00 89 1020.1
20260506130942 55 195 1.0 3.0 0.00 0.00 0.00 89 1020.1
20260506130439 55 58 2.0 2.0 0.00 0.00 0.00 90 1020.1
20260506125937 55 136 0.0 3.0 0.00 0.00 0.00 90 1020.0
20260506125435 55 153 1.0 1.0 0.00 0.00 0.00 90 1019.9
20260506124933 55 133 1.0 1.0 0.00 0.00 0.00 89 1019.8
20260506124430 55 185 1.0 2.0 0.00 0.00 0.00 89 1019.6
20260506123928 55 135 1.0 2.0 0.00 0.00 0.00 89 1019.6
20260506123426 55 152 0.0 3.0 0.00 0.00 0.00 89 1019.8
20260506122923 55 148 0.0 1.0 0.00 0.00 0.00 89 1019.6
20260506122419 55 146 0.0 1.0 0.00 0.00 0.00 89 1019.7
20260506121918 55 141 0.0 1.0 0.00 0.00 0.00 89 1019.4
20260506121415 56 140 1.0 1.0 0.00 0.00 0.00 88 1019.4
20260506120912 56 136 0.0 1.0 0.00 0.00 0.00 88 1019.9
20260506120409 56 122 1.0 2.0 0.00 0.00 0.00 88 1019.4
20260506115906 56 36 1.0 3.0 0.00 0.00 0.00 87 1019.7
20260506115404 56 150 1.0 2.0 0.00 0.00 0.00 87 1019.4
20260506114902 56 144 0.0 2.0 0.00 0.00 0.00 87 1019.6
20260506114359 57 94 2.0 2.0 0.00 0.00 0.00 87 1019.6
20260506113858 57 131 0.0 3.0 0.00 0.00 0.00 87 1019.5
20260506113355 57 115 3.0 3.0 0.00 0.00 0.00 87 1019.6
20260506112851 57 142 0.0 2.0 0.00 0.00 0.00 87 1019.3
20260506112349 57 259 3.0 5.0 0.00 0.00 0.00 87 1019.2
20260506111846 57 112 1.0 2.0 0.00 0.00 0.00 87 1019.4
20260506111344 57 152 2.0 6.0 0.00 0.00 0.00 87 1019.4
20260506110842 57 152 1.0 2.0 0.00 0.00 0.00 87 1019.5
20260506110339 57 148 1.0 3.0 0.00 0.00 0.00 87 1019.3
20260506105835 57 19 3.0 3.0 0.00 0.00 0.00 87 1019.1
20260506105332 57 293 2.0 3.0 0.00 0.00 0.00 88 1019.0
20260506104830 57 160 2.0 2.0 0.00 0.00 0.00 88 1019.1
20260506104327 57 113 1.0 3.0 0.00 0.00 0.00 88 1018.8
20260506103824 57 135 0.0 3.0 0.00 0.00 0.00 88 1019.0
20260506103322 57 133 1.0 2.0 0.00 0.00 0.00 88 1018.9
20260506102819 57 31 3.0 3.0 0.00 0.00 0.00 87 1018.8
20260506102317 57 121 0.0 2.0 0.00 0.00 0.00 87 1018.8
20260506101814 57 134 1.0 2.0 0.00 0.00 0.00 87 1018.8
20260506101310 57 119 1.0 1.0 0.00 0.00 0.00 87 1018.6
20260506100808 57 144 0.0 2.0 0.00 0.00 0.00 87 1018.7
20260506100306 57 333 2.0 2.0 0.00 0.00 0.00 87 1018.6
20260506095804 57 117 0.0 1.0 0.00 0.00 0.00 87 1018.4
20260506095301 57 147 0.0 0.0 0.00 0.00 0.00 87 1018.4
20260506094757 57 154 0.0 0.0 0.00 0.00 0.00 87 1018.5
20260506094256 57 133 1.0 1.0 0.00 0.00 0.00 87 1018.4
20260506093754 57 177 1.0 2.0 0.00 0.00 0.00 87 1018.3
20260506093251 57 142 1.0 2.0 0.00 0.00 0.00 87 1018.5
20260506092749 57 139 2.0 2.0 0.00 0.00 0.00 86 1018.5
20260506092246 57 125 0.0 2.0 0.00 0.00 0.00 86 1018.3
20260506091743 57 260 2.0 2.0 0.00 0.00 0.00 86 1018.3
20260506091241 57 127 1.0 1.0 0.00 0.00 0.00 86 1018.3
20260506090739 57 111 1.0 3.0 0.00 0.00 0.00 86 1018.3
20260506090236 57 89 1.0 3.0 0.00 0.00 0.00 86 1018.2
20260506085732 57 127 2.0 2.0 0.00 0.00 0.00 86 1018.3
20260506085228 57 345 4.0 5.0 0.00 0.00 0.00 86 1018.4
20260506084726 57 153 2.0 5.0 0.00 0.00 0.00 86 1018.2
20260506084221 58 196 0.0 2.0 0.00 0.00 0.00 86 1018.3
20260506083719 58 102 1.0 3.0 0.00 0.00 0.00 85 1018.5
20260506083216 58 93 2.0 2.0 0.00 0.00 0.00 85 1018.3
20260506082714 58 165 1.0 3.0 0.00 0.00 0.00 85 1018.3
20260506082209 58 257 2.0 2.0 0.00 0.00 0.00 85 1018.3
20260506081707 58 359 3.0 5.0 0.00 0.00 0.00 85 1018.3
20260506081204 58 106 2.0 3.0 0.00 0.00 0.00 85 1018.2
20260506080702 58 113 1.0 1.0 0.00 0.00 0.00 85 1018.2
20260506080158 58 37 2.0 2.0 0.00 0.00 0.00 85 1018.2
20260506073143 59 138 1.0 1.0 0.00 0.00 0.00 87 1017.8
20260506072639 59 146 0.0 1.0 0.00 0.00 0.00 87 1017.9
20260506072137 59 123 1.0 1.0 0.00 0.00 0.00 86 1017.9
20260506071634 59 147 0.0 2.0 0.00 0.00 0.00 86 1018.0
20260506071132 59 158 1.0 1.0 0.00 0.00 0.00 86 1017.8
20260506070628 59 129 0.0 0.0 0.00 0.00 0.00 87 1017.8
20260506070126 60 146 0.0 0.0 0.00 0.00 0.00 86 1017.6
20260506062103 60 46 1.0 1.0 0.00 0.00 0.00 85 1017.4
20260506061558 60 301 1.0 2.0 0.00 0.00 0.00 84 1017.4
20260506061056 60 145 1.0 2.0 0.00 0.00 0.00 83 1017.5
20260506060555 60 139 0.0 1.0 0.00 0.00 0.00 83 1017.6
20260506051024 60 152 0.0 0.0 0.00 0.00 0.00 85 1017.4
20260506050521 60 160 0.0 1.0 0.00 0.00 0.00 85 1017.1
20260506045011 60 162 0.0 1.0 0.00 0.00 0.00 84 1017.1
20260506044510 60 152 0.0 1.0 0.00 0.00 0.00 83 1017.0
20260506044006 60 151 0.0 1.0 0.00 0.00 0.00 83 1016.8
20260506043503 60 160 1.0 2.0 0.00 0.00 0.00 82 1017.1
20260506043001 60 152 0.0 1.0 0.00 0.00 0.00 81 1017.1
20260506042501 61 166 1.0 1.0 0.00 0.00 0.00 80 1016.9
20260506041958 61 148 0.0 0.0 0.00 0.00 0.00 78 1016.9
20260506041456 61 149 0.0 0.0 0.00 0.00 0.00 79 1016.9
20260506040953 61 144 0.0 0.0 0.00 0.00 0.00 79 1016.7
20260506040451 61 145 0.0 0.0 0.00 0.00 0.00 79 1016.7
20260506035946 61 133 1.0 1.0 0.00 0.00 0.00 79 1016.7
20260506035444 61 127 1.0 1.0 0.00 0.00 0.00 79 1016.4
20260506034940 61 143 0.0 1.0 0.00 0.00 0.00 78 1016.5
20260506034438 61 142 0.0 1.0 0.00 0.00 0.00 78 1016.4
20260506033935 61 138 0.0 1.0 0.00 0.00 0.00 77 1016.2
20260506033432 62 130 0.0 1.0 0.00 0.00 0.00 77 1016.2
20260506032928 62 121 2.0 2.0 0.00 0.00 0.00 76 1016.6
20260506032426 62 138 0.0 1.0 0.00 0.00 0.00 77 1016.1
20260506031922 62 146 0.0 1.0 0.00 0.00 0.00 76 1016.3
20260506031420 62 142 0.0 2.0 0.00 0.00 0.00 76 1016.1
20260506030917 62 83 1.0 2.0 0.00 0.00 0.00 75 1016.0
20260506030415 63 79 1.0 3.0 0.00 0.00 0.00 75 1016.1
20260506025912 63 117 3.0 3.0 0.00 0.00 0.00 74 1016.2
20260506025409 63 65 2.0 6.0 0.00 0.00 0.00 74 1016.0